Location: Campillo
(40.8621°N, 4.2488°W)
Time: 16:51:36
(UTC+00:00)

Cosmos 1777 Rocket - Pass Details

Date: 01 October 2021
Orbit: 759 x 775 km, 74.0° (Epoch: 23 October)

Event Time Altitude Azimuth Distance (km) Brightness Sun altitude
Rises 03:15:29 0° 353° (N) 3,227 7.5 -33.4°
Reaches altitude 10° 03:18:24 10° 8° (N) 2,297 6.8 -32.9°
Maximum altitude 03:22:23 22° 59° (ENE) 1,630 6.3 -32.2°
Drops below altitude 10° 03:26:21 10° 109° (ESE) 2,289 6.9 -31.6°
Sets 03:29:14 0° 124° (SE) 3,212 7.6 -31.1°
